This is the latest recevied weather packets stored in our database for station/object G6UYG-13. If no packets are shown the sender has not sent any weather packets the latest 10 day(s).
| Time | Temp. | Humidity | Pressure | Rain* | Wind** | Luminosity | Snow |
|---|---|---|---|---|---|---|---|
| 1777295295 | 18.33° C | 60% | 1023 hPa | 0 mm | - | 248 W/m² | - |
| 1777294875 | 17.78° C | 60% | 1023.1 hPa | 0 mm | - | 459 W/m² | - |
| 1777294455 | 18.33° C | 60% | 1023.1 hPa | 0 mm | - | 232 W/m² | - |
| 1777294035 | 18.33° C | 61% | 1023.1 hPa | 0 mm | - | 861 W/m² | - |
| 1777293615 | 18.33° C | 59% | 1023.2 hPa | 0 mm | - | 237 W/m² | - |
| 1777293195 | 18.33° C | 60% | 1023.2 hPa | 0 mm | - | 942 W/m² | - |
| 1777292775 | 18.33° C | 60% | 1023.4 hPa | 0 mm | - | 826 W/m² | - |
| 1777292355 | 18.33° C | 61% | 1023.4 hPa | 0 mm | - | 846 W/m² | - |
| 1777291935 | 17.78° C | 62% | 1023.4 hPa | 0 mm | - | 793 W/m² | - |
| 1777291515 | 17.78° C | 62% | 1023.4 hPa | 0 mm | - | 763 W/m² | - |
| 1777291095 | 17.78° C | 61% | 1023.5 hPa | 0 mm | - | 754 W/m² | - |
| 1777290675 | 17.78° C | 61% | 1023.6 hPa | 0 mm | - | 761 W/m² | - |
| 1777290255 | 17.78° C | 61% | 1023.6 hPa | 0 mm | - | 770 W/m² | - |
| 1777289835 | 17.78° C | 63% | 1023.6 hPa | 0 mm | - | 749 W/m² | - |
| 1777289415 | 17.78° C | 63% | 1023.7 hPa | 0 mm | - | 752 W/m² | - |
| 1777288995 | 17.22° C | 63% | 1023.9 hPa | 0 mm | - | 740 W/m² | - |
| 1777288575 | 17.22° C | 65% | 1023.9 hPa | 0 mm | - | 726 W/m² | - |
| 1777288155 | 17.22° C | 66% | 1023.9 hPa | 0 mm | - | 735 W/m² | - |
| 1777287735 | 16.67° C | 66% | 1024 hPa | 0 mm | - | 724 W/m² | - |
| 1777287315 | 16.67° C | 67% | 1024.1 hPa | 0 mm | - | 715 W/m² | - |
| 1777286895 | 16.11° C | 68% | 1024.1 hPa | 0 mm | - | 724 W/m² | - |
| 1777286475 | 15.56° C | 70% | 1024.1 hPa | 0 mm | - | 733 W/m² | - |
| 1777286055 | 15.56° C | 71% | 1024.2 hPa | 0 mm | - | 635 W/m² | - |
| 1777285635 | 15° C | 72% | 1024.2 hPa | 0 mm | - | 555 W/m² | - |
| 1777285215 | 15° C | 71% | 1024.2 hPa | 0 mm | - | 366 W/m² | - |
* Rain latest hour (hover to see other rain measurements)
** Current wind speed in m/s (hover to see current wind gust speed)